CAPE
1171 1185 1222 1140 1248 1386 1191 1105 1333 1413 1633 1461 1449 1581 1464 1007 736 817 1099 1609 1575 1338 1280 1263 1034 1125 954 940 700 576 447 348 231 208 427 690 920 863 676 589 413 338 2
1052 961 1137 1237 1321 1273 1209 1161 1437 1470 1725 1361 1540 1525 1272 832 817 909 810 1110 1438 1833 1570 1494 1303 1082 1172 730 495 568 695 438 496 871 1161 748 815 771 673 559 309 244 0
891 1295 1325 1368 1244 1335 1585 1586 1339 1573 1246 1394 1481 1338 1220 1062 634 796 749 893 1052 1446 1587 1519 1185 1023 965 760 653 694 729 872 1187 1015 879 775 877 775 633 460 250 184 0
908 1266 1148 1101 1109 1296 1428 1480 1330 1454 1198 1202 1334 1162 1134 831 754 790 772 815 703 904 1228 1742 1869 1440 985 796 793 870 931 1117 1198 1170 1094 984 859 640 376 290 222 125 0
1107 1192 1240 1005 1418 1464 1404 1043 1456 1470 1218 1203 1017 1106 999 919 917 543 798 833 874 925 860 554 793 1029 1227 1032 1051 1124 1183 1386 1435 1265 1395 1251 961 581 278 232 235 68 0
1189 1250 995 1295 1505 1346 1313 862 1495 1230 1158 1160 894 1106 1360 1323 1367 1318 1223 962 984 1050 1060 1234 1225 932 629 960 1170 1223 1249 1386 1725 1676 1682 1546 1111 713 292 201 243 129 0
1119 1215 1155 1353 1438 1424 1323 1265 1210 1457 1118 1162 1152 936 1117 1287 1221 1222 1314 1362 1286 1248 1317 1526 1745 1478 1275 964 1003 1148 1182 1330 1360 1674 1623 1672 1627 1122 667 380 313 248 49
1510 1093 924 1325 1228 1198 1528 1554 1238 994 962 856 895 929 658 522 463 501 742 1020 1317 1261 1192 1368 1646 1843 1891 1593 1367 1052 1189 1368 1535 1479 1948 1590 1712 1668 1257 697 508 451 387
1591 1565 1185 1570 1331 1266 1191 1353 1121 1496 958 852 884 860 733 541 805 593 870 715 986 994 1102 1201 1316 1595 1837 1750 1667 1470 1275 976 1018 1416 1814 2213 1748 1615 1646 1352 772 503 434
1766 1726 1695 1727 1518 1006 1201 895 1176 1218 1032 931 848 639 953 926 638 583 785 606 832 836 1055 1137 1021 1243 1560 1557 1469 1589 1219 1028 1171 1288 1524 2088 2324 2010 1699 1726 1555 1001 568
1835 1872 1852 1861 1850 1528 1644 1847 1810 1566 1069 698 620 1250 1195 747 735 875 856 965 1014 1038 1124 1131 1118 1229 1377 1494 1421 1267 1021 840 837 1100 1237 1461 1740 1772 2166 2216 1988 1930 1759
2027 2092 2014 2062 1712 1613 1518 1664 2083 1955 2037 1855 1425 1661 1473 925 780 1048 1044 1299 1277 1218 1172 1164 1393 1305 1322 1388 1270 890 961 792 667 660 611 677 706 947 1224 1466 1680 1980 2219
1582 2046 2237 2452 2421 1933 1800 1785 1949 2032 2004 1716 2324 1598 1562 1542 1160 1202 911 1008 1086 1301 1298 1553 1662 1782 1622 1917 1683 622 1059 537 241 110 176 180 358 516 619 788 970 1069 1249
1534 1955 2330 2175 2202 1989 1807 1850 1804 1764 1966 1855 2097 2570 1814 1667 1485 1411 1700 1181 818 904 1129 1648 1647 1461 1862 2133 1772 1413 2295 1885 849 738 521 391 315 174 247 358 384 383 415
1285 1884 2004 2276 2182 2197 2126 2041 1652 2325 2459 2237 2176 2189 2086 1866 1717 1404 1515 1539 1297 1016 972 1173 1133 1660 2004 2193 2220 2683 2687 2010 1378 1165 927 607 186 127 157 109 65 40 44
1746 1635 2067 2193 2310 2321 2252 2245 1879 1942 2190 2085 1897 2322 2322 1764 1806 1585 1337 1449 1532 1677 1255 1494 1617 1983 2413 2551 2154 2849 2793 2324 2290 1980 1312 380 139 198 423 332 14 0 0
1980 2034 2121 2128 2261 2334 2412 2477 2355 2104 2237 2338 2202 2305 2313 2471 1711 1643 1555 1699 1904 1731 1503 1192 1975 2193 2789 3099 2953 3144 2520 2447 2284 1852 1300 583 435 296 380 1 0 0 0
1819 2073 2195 2270 2295 2328 2403 2446 2350 1953 2195 2026 2054 2266 2136 1915 2356 2361 2158 2333 2064 2343 2178 2246 2463 2306 2692 2888 3187 3363 2835 2190 2964 1838 1523 1339 1075 419 36 0 0 0 0
1563 1573 1919 2180 2326 2351 2409 2450 2519 2428 2393 2251 1982 2112 2141 2305 2488 2083 2454 2295 2180 2460 2590 2613 2474 2412 2538 2590 2768 2803 2916 3023 2394 1729 1755 1670 1788 682 0 0 0 0 0
1329 1410 1658 1878 2099 2397 2464 2435 2422 2517 2539 2387 2291 2167 2152 2227 2365 2644 2668 2733 2581 2644 2501 2713 2225 2155 2349 2467 2657 2120 2088 2128 2549 2423 2221 1988 1783 247 0 0 0 0 0
1070 1172 1341 1473 1708 1750 1751 2190 2360 2491 2538 2444 2348 2334 2225 2010 1748 1887 2005 2356 2541 2544 2305 2349 2206 2048 1953 1850 2052 1951 1914 2188 2643 2618 2612 1881 2131 3024 1250 0 0 0 0
1079 1124 1026 1372 1408 1161 674 744 1568 2187 2383 2422 2498 2496 2426 1483 1191 821 646 917 1451 2533 2438 2058 1583 1819 2778 2447 1766 1973 1945 2114 1883 1768 2634 2044 2251 3121 3252 1313 0 0 0
1146 1169 1027 1024 1482 1708 819 213 402 1499 2041 2381 2521 2544 2393 1860 1805 2327 794 65 86 62 528 2399 2454 2350 2727 2372 2588 2790 2452 2415 2359 1947 2572 2180 2262 3043 3012 112 0 0 0
1086 1043 984 1178 1311 1256 578 56 2 1304 2112 2315 2414 2356 2566 2639 2397 2229 2352 2256 2275 2255 1802 1199 1655 2149 2439 2567 2882 2956 2788 2715 2388 2128 2716 2418 2186 2995 2990 1008 0 0 0
845 799 841 984 1226 1383 234 1 0 936 1132 2172 2382 2290 2570 2505 2230 1383 1972 2161 2283 2265 1497 1326 1166 1276 1413 1051 1130 1901 2012 1886 1555 1327 1719 2313 2363 3038 3368 2847 192 0 0
1118 960 839 860 552 1087 551 0 0 378 994 861 1582 2053 1231 1494 1595 751 1424 1893 2236 2098 1707 1459 1650 790 141 772 0 710 1896 1933 1602 1434 1573 2229 1908 2599 2731 2790 1616 111 10
CIN
-10 -10 -10 -13 -14 -15 -18 -30 -25 -25 -29 -26 -25 -19 -10 -19 -23 -9 -0 -1 -0 -0 -0 -0 -0 -0 -0 -0 -0 -6 -34 -70 -108 -116 -52 -15 -1 -2 -10 -10 -24 -22 -5
-27 -22 -17 -16 -19 -20 -25 -29 -28 -26 -19 -26 -26 -22 -19 -23 -30 -25 -14 -1 -5 -1 -0 -0 -0 -0 -0 -0 -41 -40 -32 -85 -79 -22 -0 -25 -20 -20 -25 -28 -61 -55 -0
-41 -26 -14 -13 -19 -33 -28 -27 -35 -25 -17 -16 -22 -20 -20 -25 -33 -27 -21 -12 -3 -8 -0 -0 -0 -0 -0 -29 -63 -64 -60 -41 -9 -23 -23 -40 -31 -38 -52 -58 -86 -84 -0
-48 -27 -20 -19 -30 -29 -26 -18 -15 -10 -14 -9 -9 -14 -16 -26 -37 -32 -26 -25 -16 -7 -10 -8 -0 -1 -34 -82 -87 -74 -65 -45 -37 -32 -30 -36 -44 -72 -125 -126 -121 -127 -0
-40 -33 -24 -29 -37 -25 -19 -23 -16 -13 -8 -6 -8 -14 -22 -24 -26 -23 -29 -31 -22 -23 -12 -97 -110 -80 -54 -97 -96 -84 -68 -43 -31 -43 -21 -25 -52 -118 -188 -181 -153 -194 -0
-35 -32 -31 -29 -31 -22 -20 -30 -27 -30 -20 -16 -7 -7 -15 -20 -21 -19 -18 -20 -22 -27 -18 -25 -30 -87 -244 -180 -138 -120 -104 -75 -25 -23 -14 -16 -57 -131 -229 -247 -196 -206 -0
-36 -40 -35 -27 -32 -21 -29 -38 -33 -24 -16 -35 -8 -6 -8 -18 -19 -23 -15 -11 -14 -15 -17 -19 -19 -37 -83 -219 -224 -183 -164 -128 -104 -45 -43 -42 -35 -76 -167 -230 -227 -217 -254
-28 -33 -47 -24 -31 -22 -37 -37 -36 -18 -24 -39 -9 -14 -0 -5 -12 -15 -24 -25 -19 -17 -31 -41 -34 -46 -59 -78 -120 -247 -221 -177 -120 -107 -68 -83 -66 -63 -98 -192 -215 -201 -187
-24 -28 -35 -22 -33 -30 -21 -41 -42 -29 -10 -53 -63 -11 -0 -0 -9 -19 -25 -25 -43 -39 -56 -73 -83 -75 -78 -85 -112 -133 -234 -328 -284 -175 -114 -80 -103 -103 -93 -114 -203 -248 -227
-16 -23 -20 -21 -28 -33 -36 -41 -42 -34 -38 -9 -40 -43 -56 -43 -2 -0 -9 -28 -43 -59 -65 -78 -108 -101 -102 -96 -128 -195 -335 -392 -328 -273 -196 -124 -100 -121 -147 -139 -139 -185 -249
-13 -11 -20 -24 -22 -17 -30 -24 -30 -40 -33 -17 -12 -12 -35 -36 -69 -16 -0 -2 -13 -30 -49 -74 -101 -104 -113 -108 -105 -167 -384 -485 -481 -408 -340 -269 -202 -182 -139 -121 -118 -97 -92
-3 -6 -8 -14 -24 -22 -29 -19 -19 -26 -18 -25 -17 -13 -8 -8 -7 -8 -11 -14 -13 -10 -31 -62 -67 -84 -98 -106 -146 -382 -409 -504 -558 -571 -590 -550 -501 -404 -312 -233 -168 -99 -63
-11 -9 -9 -9 -15 -19 -21 -21 -20 -14 -16 -16 -18 -7 -17 -20 -36 -27 -27 -11 -11 -15 -13 -24 -39 -41 -45 -64 -87 -497 -332 -520 -680 -736 -695 -751 -696 -614 -531 -440 -357 -309 -263
-13 -15 -12 -9 -12 -23 -22 -20 -9 -7 -12 -10 -12 -9 -9 -18 -32 -35 -16 -17 -7 -12 -24 -40 -30 -49 -45 -52 -147 -218 -69 -155 -438 -475 -573 -644 -692 -761 -735 -655 -607 -567 -516
-19 -28 -18 -12 -13 -17 -17 -16 -6 -8 -8 -7 -4 -12 -10 -12 -21 -29 -33 -29 -18 -5 -12 -24 -44 -53 -50 -41 -102 -53 -64 -174 -329 -381 -465 -573 -791 -795 -768 -788 -843 -880 -857
-36 -34 -19 -18 -9 -12 -16 -18 -11 -10 -8 -3 -2 -5 -9 -13 -20 -27 -30 -31 -33 -12 -16 -30 -28 -46 -44 -32 -65 -46 -56 -158 -156 -213 -369 -700 -819 -776 -690 -715 -551 -0 -0
-33 -38 -35 -25 -21 -13 -16 -11 -10 -6 -8 -2 -3 -3 -4 -8 -13 -15 -26 -22 -17 -25 -20 -47 -46 -44 -42 -27 -38 -40 -60 -72 -93 -184 -355 -612 -671 -764 -742 -283 -0 -0 -0
-30 -33 -37 -30 -23 -19 -18 -19 -16 -13 -9 -11 -7 -4 -5 -5 -10 -14 -14 -16 -14 -9 -8 -6 -6 -32 -33 -38 -35 -36 -61 -85 -66 -158 -288 -375 -485 -751 -156 -0 -0 -0 -0
-37 -30 -35 -34 -26 -21 -20 -21 -18 -10 -9 -12 -12 -7 -5 -1 -1 -1 -5 -2 -1 -0 -0 -0 -4 -21 -37 -35 -46 -42 -51 -57 -82 -181 -208 -258 -286 -649 -0 -0 -0 -0 -0
-57 -47 -41 -38 -31 -25 -28 -26 -25 -25 -17 -13 -14 -13 -9 -6 -4 -0 -0 -0 -0 -0 -0 -0 -6 -26 -29 -35 -30 -54 -78 -84 -79 -83 -83 -139 -242 -578 -0 -0 -0 -0 -0
-86 -60 -51 -48 -39 -27 -22 -33 -32 -27 -28 -25 -22 -23 -20 -28 -43 -29 -2 -0 -0 -0 -0 -0 -3 -20 -34 -41 -32 -48 -64 -65 -55 -71 -64 -121 -91 -21 -227 -0 -0 -0 -0
-103 -91 -72 -43 -41 -38 -59 -105 -62 -25 -29 -31 -25 -25 -27 -74 -117 -162 -210 -137 -48 -0 -0 -0 -30 -33 -5 -8 -33 -27 -36 -48 -88 -108 -58 -128 -90 -16 -2 -291 -0 -0 -0
-112 -99 -94 -75 -46 -34 -101 -232 -251 -32 -24 -24 -25 -23 -18 -17 -64 -20 -238 -423 -101 -318 -301 -19 -3 -11 -3 -12 -0 -0 -1 -5 -26 -69 -30 -104 -79 -7 -14 -122 -0 -0 -0
-95 -118 -122 -91 -74 -72 -171 -398 -199 -67 -8 -16 -22 -24 -20 -12 -23 -40 -22 -17 -19 -26 -84 -135 -72 -39 -25 -11 -1 -0 -0 -0 -12 -30 -11 -63 -67 -6 -16 -373 -0 -0 -0
-99 -123 -129 -122 -91 -94 -287 -32 -0 -77 -41 -9 -11 -29 -17 -19 -43 -133 -46 -23 -22 -27 -62 -126 -154 -139 -126 -171 -137 -10 -8 -7 -40 -57 -36 -25 -23 -0 -0 -18 -342 -0 -0
-42 -73 -106 -129 -204 -127 -239 -0 -0 -157 -44 -84 -62 -34 -143 -121 -105 -253 -117 -40 -14 -45 -49 -53 -51 -269 -9 -253 -0 -234 -11 -2 -16 -41 -29 -8 -42 -1 -8 -16 -139 -202 -55
Wind_Speed
4 4 4 3 3 2 3 3 3 3 3 4 4 4 3 4 4 2 2 2 3 3 4 2 2 2 3 3 4 4 5 6 7 7 7 7 9 10 9 7 6 5 5
3 4 4 3 1 2 3 2 3 3 4 4 5 4 4 4 2 1 1 2 3 3 4 4 2 5 4 4 5 6 6 7 7 8 8 9 9 8 8 6 5 3 3
2 1 2 3 1 2 2 1 2 2 3 4 5 4 2 2 1 1 1 2 0 4 5 5 5 5 6 7 7 7 7 8 9 8 8 8 8 7 7 6 4 2 1
2 2 1 1 2 2 1 1 1 2 3 4 4 3 2 1 0 1 1 3 2 4 3 4 6 6 7 7 8 8 8 9 9 8 8 8 8 8 7 6 5 4 3
3 2 2 2 2 1 2 2 3 2 3 3 2 1 1 1 2 1 2 3 4 5 4 2 6 7 8 8 8 9 9 9 8 9 9 8 8 8 7 6 6 6 6
4 2 2 2 2 1 2 2 2 3 2 2 3 2 2 3 3 3 3 4 4 5 5 5 4 3 6 9 10 10 10 10 9 9 9 9 9 8 8 8 8 9 9
4 4 3 3 3 2 2 3 3 3 2 1 1 2 3 5 5 4 4 4 4 5 5 5 5 4 4 7 10 10 10 11 11 10 9 9 9 9 9 9 10 11 12
4 4 4 3 3 3 2 3 2 2 2 2 1 2 3 2 0 2 3 4 5 5 5 5 6 6 6 5 5 8 10 11 11 11 11 10 10 11 11 11 12 13 14
5 4 5 3 3 2 3 4 3 3 3 2 1 3 2 4 4 1 0 2 3 3 4 5 6 5 6 6 6 6 8 10 12 12 13 12 12 12 13 14 13 14 15
5 5 5 5 4 2 3 3 3 1 2 3 2 1 2 3 4 4 1 1 2 3 3 4 4 4 4 5 6 9 11 12 12 14 14 15 14 15 16 17 17 17 16
5 6 6 5 5 4 4 4 4 3 1 2 2 2 1 2 2 3 3 3 0 1 2 3 4 4 4 5 6 7 8 11 12 13 14 15 16 17 18 18 18 18 18
5 6 6 5 4 3 4 4 3 4 2 1 2 1 1 2 2 2 2 2 4 2 3 3 3 3 3 4 5 8 9 10 11 12 13 13 14 15 16 17 18 18 18
5 7 7 6 6 6 5 4 4 4 4 2 3 1 1 1 1 2 2 3 3 2 2 2 4 4 4 4 5 7 6 7 9 10 10 11 11 12 12 14 14 14 15
7 7 8 7 6 5 5 4 4 5 4 3 4 3 1 1 1 1 3 4 3 2 1 4 1 4 5 5 5 8 8 7 9 9 10 9 10 12 11 12 11 12 13
6 8 9 9 8 7 7 6 5 5 4 4 4 4 4 2 2 1 1 2 3 5 4 2 3 4 5 5 5 9 9 10 9 9 10 10 11 10 10 9 8 9 9
8 8 9 9 8 9 8 7 6 6 6 5 5 5 5 4 4 3 3 2 2 3 5 2 4 4 6 6 6 9 9 9 3 8 10 9 8 8 8 8 8 8 9
9 9 9 9 9 9 9 9 8 7 8 7 6 6 6 5 5 4 4 4 4 3 6 6 4 5 5 7 9 8 8 8 8 7 9 9 6 7 6 5 7 9 10
10 10 8 9 9 9 9 10 10 9 10 9 8 7 7 6 6 5 5 5 5 4 6 8 7 7 7 8 8 9 8 7 7 7 11 8 7 6 4 6 7 8 9
13 11 10 10 10 10 11 11 11 10 10 10 9 9 8 8 7 6 6 5 5 5 6 7 8 6 7 7 9 8 7 7 7 9 5 7 4 3 7 7 7 7 6
13 13 13 12 12 11 12 11 11 11 11 11 11 11 10 10 9 8 7 7 7 7 7 8 8 8 8 7 7 8 9 8 9 8 6 6 5 10 7 6 7 7 6
14 14 14 14 13 12 10 12 12 12 11 11 12 12 12 12 11 10 7 7 7 8 7 8 9 9 8 7 8 8 8 8 9 4 7 9 8 4 7 6 9 8 6
14 14 15 15 15 13 13 14 13 12 12 12 12 13 13 11 12 13 13 13 10 9 10 9 9 10 10 9 7 7 8 8 8 3 6 10 8 6 4 1 7 6 5
14 15 15 15 16 16 12 15 17 14 13 13 13 12 12 11 12 12 13 14 13 14 15 11 12 12 12 10 10 10 9 8 10 10 9 9 8 7 1 6 7 6 4
14 14 15 15 15 14 14 16 17 18 14 15 15 15 14 14 13 13 12 12 12 12 11 10 14 14 13 11 10 9 9 9 8 9 6 7 8 7 1 4 8 7 5
13 14 14 15 16 16 15 18 15 16 17 17 15 16 15 15 14 16 14 14 13 13 10 14 15 12 13 10 10 9 9 9 10 9 6 8 6 7 4 5 7 8 5
14 12 14 15 16 17 14 17 17 14 15 14 15 16 16 19 14 15 15 14 14 14 13 13 10 10 13 13 12 12 10 11 10 10 2 5 7 6 4 2 3 7 7
Wind_Direction
119 123 109 107 85 85 94 86 60 45 21 17 75 102 93 77 68 60 43 44 357 1 356 37 357 342 342 353 342 326 334 335 337 340 340 331 342 346 352 10 12 28 49
130 135 137 119 117 73 95 75 23 14 20 37 90 85 70 80 78 70 54 92 314 328 315 308 314 321 316 317 308 322 313 322 318 313 331 344 332 338 333 343 348 12 62
168 229 160 145 129 108 114 108 78 58 51 88 94 91 65 67 103 96 330 344 104 216 282 295 303 302 302 304 303 302 304 302 309 323 323 321 320 323 320 314 308 300 92
157 178 182 206 115 120 82 85 64 86 76 82 85 75 40 9 319 251 306 310 317 310 204 251 281 287 288 289 292 294 296 300 302 307 313 316 317 316 310 301 285 271 251
201 246 233 163 166 139 106 56 76 61 82 73 94 51 13 299 275 296 283 270 276 281 304 178 267 277 275 281 290 296 298 297 295 301 306 305 306 302 298 286 273 269 259
180 208 191 201 210 170 100 90 89 78 55 44 1 2 309 277 282 283 284 264 267 267 272 282 288 272 249 272 277 284 291 299 303 300 297 292 287 283 277 270 264 262 259
167 200 206 212 199 210 123 122 130 159 110 75 315 315 279 259 262 266 267 269 273 270 284 282 282 295 289 239 269 281 292 297 298 297 289 278 269 269 262 256 254 255 258
180 196 210 218 210 165 170 168 159 132 115 142 11 300 357 132 342 277 275 271 284 289 286 282 286 284 291 301 307 292 284 285 286 288 284 276 266 258 254 250 249 250 250
186 186 185 210 208 206 165 185 177 198 167 154 43 345 331 19 333 74 76 301 300 283 291 286 289 282 277 291 298 291 258 274 282 285 285 276 266 259 254 250 251 249 245
186 184 192 202 195 199 164 183 192 177 207 149 170 235 310 332 344 347 91 357 290 278 301 294 305 300 294 284 286 275 282 280 282 284 285 283 274 263 256 251 245 245 240
188 188 199 194 197 215 185 191 171 178 188 182 172 163 213 251 240 307 354 25 166 355 329 311 312 303 298 290 296 290 277 281 282 282 283 289 291 290 285 278 270 263 261
191 192 187 183 183 207 208 206 198 191 203 180 187 189 321 319 360 337 335 7 344 5 343 353 353 339 332 316 302 303 296 296 294 295 301 303 302 299 294 292 289 285 277
203 197 197 191 181 202 208 210 202 208 206 212 197 228 161 345 358 347 335 18 339 9 356 55 55 43 30 12 9 340 316 298 305 314 321 316 316 312 318 309 302 296 294
204 196 197 206 188 194 199 197 215 222 202 215 218 232 245 225 237 353 4 341 347 7 348 351 359 22 17 7 1 294 352 347 335 331 313 329 336 324 328 313 304 305 305
212 201 201 201 199 193 205 197 228 218 215 210 217 223 248 248 242 235 293 320 333 337 346 67 331 9 347 342 3 342 342 355 317 314 326 346 334 329 321 319 337 332 324
216 204 208 206 201 197 202 202 214 218 221 226 232 223 236 242 247 236 250 247 237 301 306 320 316 318 327 326 357 334 338 293 299 305 324 333 333 332 321 350 13 12 20
208 211 213 211 207 204 207 209 223 218 214 219 219 224 233 226 246 243 232 237 246 252 283 306 286 309 300 315 327 335 332 328 340 347 336 323 345 328 351 29 54 55 49
215 213 210 215 215 209 208 212 216 217 217 220 224 222 231 220 225 231 238 247 254 246 272 288 312 300 298 317 316 321 331 332 338 354 320 312 343 356 76 91 77 66 60
223 222 216 213 216 217 215 218 224 228 225 227 227 226 228 224 231 234 233 242 246 251 246 274 293 295 300 308 320 316 328 330 318 327 291 285 16 76 112 98 83 63 58
222 225 224 221 221 219 214 215 220 225 231 231 228 228 229 225 230 232 234 240 250 259 256 263 280 288 294 317 302 313 328 331 330 328 334 289 273 115 113 107 96 82 55
224 227 231 228 228 229 224 218 219 221 225 230 230 229 230 232 224 231 244 242 255 250 264 272 278 281 283 304 315 322 308 324 317 342 326 326 340 317 155 178 115 85 64
223 224 227 231 234 233 223 207 216 219 223 227 230 229 235 220 231 225 223 237 253 254 259 271 278 282 286 285 295 299 309 320 316 330 316 318 319 318 349 287 97 99 83
218 220 228 231 232 234 222 208 211 229 226 225 228 231 232 232 221 236 218 225 236 233 236 253 263 266 277 280 286 288 294 297 291 309 308 306 310 313 341 129 147 125 110
225 221 224 227 231 233 216 209 207 229 237 234 233 231 232 237 229 227 234 239 241 244 232 233 241 255 259 268 271 275 292 286 277 275 285 284 312 311 8 171 151 164 136
232 231 231 226 228 236 213 211 203 231 237 237 236 235 233 236 231 209 234 245 249 252 237 227 247 256 250 248 258 283 268 275 286 292 293 283 297 312 295 253 168 159 162
239 237 238 232 229 238 220 212 204 230 238 238 236 237 217 233 218 199 219 239 247 250 254 264 246 236 238 247 216 233 253 263 276 285 280 251 286 315 297 169 201 179 190